Weather Service Report


289 
ASUS43 KMPX 050410
RWRMN 
WEATHER ROUNDUP FOR MINNESOTA
NATIONAL WEATHER SERVICE TWIN CITIES/CHANHASSEN MN
1000 PM CST WED MAR 04 2015


NOTE: "FAIR" INDICATES FEW OR NO CLOUDS BELOW 12,000 FEET WITH NO
SIGNIFICANT WEATHER AND/OR OBSTRUCTIONS TO VISIBILITY. N/A MEANS
CURRENT SKY AND/OR WEATHER CONDITIONS ARE NOT AVAILABLE.

MNZ060>063-068>070-050500-
   Twin Cities Metro   
  
CITY           SKY/WX    TMP DP  RH WIND       PRES   REMARKS
TWIN CITIES    CLEAR      1 -12  54 W7        30.44R WCI -12          
ST PAUL        CLEAR      1 -12  54 NW10      30.46R WCI -15          
CRYSTAL        CLEAR      0 -13  54 SW6       30.42R WCI -12          
BLAINE         CLEAR      0 -11  60 W5        30.41R WCI -10          
LAKEVILLE      CLEAR     -2  -9  71 SW6       30.42R WCI -14          
EDEN PRAIRIE   CLEAR     -2 -12  62 W5        30.43R WCI -12          
SOUTH ST PAUL  CLEAR      2 -12  50 NW5       30.44R WCI  -7          
LAKE ELMO      FAIR       0 -11  60 W3        30.43R                  
$$
MNZ001>005-007-008-013>017-022>024-027-028-050500-
   Northwest Minnesota   
  
CITY           SKY/WX    TMP DP  RH WIND       PRES   REMARKS
BEMIDJI        CLEAR    -13 -17  79 W6        30.31R WCI -27          
HALLOCK        CLEAR     -8 -15  71 W5        30.37R WCI -19          
ROSEAU         CLEAR     -6 -13  71 W6        30.33R WCI -18          
WARROAD        CLEAR     -9 -17  70 W6        30.31S WCI -23          
THIEF RVR FALL CLEAR     -9 N/A N/A CALM      30.34S                  
CROOKSTON      CLEAR     -8 -15  71 W3        30.40R                  
FOSSTON        CLEAR    -17 -20  83 SW3       30.35R                  
DETROIT LAKES  FAIR      -6  -9  84 NW3       30.35R                  
MOORHEAD       CLEAR     -2  -8  78 NW6       30.42R WCI -14          
PARK RAPIDS    CLEAR    -11 -16  78 CALM      30.31R                  
MAHNOMEN       FAIR      -8 -12  82 W3        30.36R                  
$$
MNZ006-009>011-018-025>026-050500-
   North Central Minnesota   
  
CITY           SKY/WX    TMP DP  RH WIND       PRES   REMARKS
BAUDETTE       CLEAR     -9 -17  68 W7        30.28R WCI -24          
FLAG ISLAND    CLEAR     -8 -15  71 W10       30.29R WCI -26          
INTL FALLS     CLEAR     -8 -16  67 W8        30.28R WCI -24          
WASKISH        CLEAR     -9 -15  77 SW3       30.31R                  
BIG FORK       CLEAR     -9 -15  77 CALM      30.28S                  
LONGVILLE      CLEAR    -15 -18  84 CALM      30.32R                  
GRAND RAPIDS   CLEAR     -8 -15  71 NW10      30.27R WCI -26          
CRANE LAKE     CLEAR    -20 -26  76 CALM      30.30R                  
ORR            CLEAR    -11 -18  70 CALM      30.24R                  
COOK           CLEAR    -17 -20  83 W5        30.28R WCI -29          
WALKER         FAIR     -11 -17  74 W3        30.32R                  
$$
MNZ012-019>021-037-050500-
   Northeast Minnesota   
  
CITY           SKY/WX    TMP DP  RH WIND       PRES   REMARKS
DULUTH         CLEAR     -5 -16  59 W10       30.26R WCI -23          
ELY            CLEAR     -9 -17  70 W5        30.24R WCI -21          
HIBBING        FAIR      -7 -16  65 W6        30.27R WCI -20          
EVELETH        CLEAR     -9 -17  70 W3        30.27R                  
DULUTH HARBOR  CLEAR      0 -13  55 W8        30.37R WCI -15          
TWO HARBORS    CLEAR     -2 -11  65 CALM      30.25R                  
SILVER BAY     CLEAR     -2 -15  55 CALM      30.24S                  
GRAND MARAIS     N/A      0 -11  59 VRB3      30.28R                  
G MARAIS ARPRT PTCLDY    -9 -18  64 NW8       30.14R WCI -26          
$$
MNZ029>031-032-039>041-046>048-054>057-064-050500-
   West Central Minnesota   
  
CITY           SKY/WX    TMP DP  RH WIND       PRES   REMARKS
FERGUS FALLS   CLEAR     -6 -13  71 NW6       30.43R WCI -18          
WHEATON        CLEAR     -9 -13  84 W3        30.45R                  
MORRIS         CLEAR     -8 -13  77 W6        30.40R WCI -21          
ALEXANDRIA     CLEAR    -10 -13  86 W6        30.36R WCI -23          
ELBOW LAKE     FAIR      -6 -10  81 NW5       30.39R WCI -17          
WADENA         CLEAR     -9 -13  84 W5        30.34R WCI -21          
GLENWOOD       CLEAR     -8 -11  84 W8        30.37R WCI -23          
APPLETON       CLEAR     -9 -15  77 W6        30.44R WCI -23          
BENSON         CLEAR     -8 -15  71 NW8       30.41R WCI -23          
ORTONVILLE     CLEAR     -4 -13  65 W7        30.43R WCI -18          
MADISON        CLEAR     -6 -13  71 W6        30.45R WCI -18          
WILLMAR        FAIR      -2  -9  71 W8        30.42R WCI -17          
$$
MNZ033>034-036-042>043-049>051-058-059-050500-
   Central Minnesota     
  
CITY           SKY/WX    TMP DP  RH WIND       PRES   REMARKS
ST CLOUD       PTCLDY    -4 -14  62 W7        30.39R WCI -18          
SAUK CENTRE    FAIR      -9 -14  78 W3        30.38R                  
PAYNESVILLE    CLEAR    -11 -15  83 CALM      30.40R                  
AITKIN         CLEAR     -6 -17  59 CALM      30.32R                  
PINE RIVER     CLEAR     -8 -15  71 CALM      30.35R                  
BRAINERD       CLEAR     -6 -15  65 NW6       30.34R WCI -19          
STAPLES        CLEAR    -13 -18  77 W5        30.35R WCI -25          
LONG PRAIRIE   FAIR      -6 -13  71 W3        30.36R                  
LITTLE FALLS   PTCLDY   -11 -17  77 CALM      30.38R                  
LITCHFIELD     CLEAR     -2  -9  71 CALM      30.41R                  
BUFFALO        CLEAR     -4 -13  64 CALM      30.43R                  
MAPLE LAKE     CLEAR     -3 -12  68 W5        30.41R WCI -14          
$$
MNZ037-044-045-052-053-050500-
   East Central Minnesota   
  
CITY           SKY/WX    TMP DP  RH WIND       PRES   REMARKS
PRINCETON      CLEAR     -6 -15  65 CALM      30.39R                  
MORA           CLEAR     -6 -17  59 CALM      30.38R                  
CAMBRIDGE      CLEAR     -2 -13  60 W3        30.37R                  
RUSH CITY      MOCLDY    -7 -15  66 CALM      30.39R                  
MOOSE LAKE     CLEAR     -4 -15  59 CALM      30.33R                  
HINCKLEY       FAIR      -2 -13  60 CALM      30.36R                  
CLOQUET        CLEAR     -6 -15  65 W5        30.29R WCI -17          
MCGREGOR       CLEAR     -4 -13  65 W6        30.33R WCI -16          
$$
MNZ071>073-080-081-089-090-097-098-050500-
   Southwest Minnesota   
  
CITY           SKY/WX    TMP DP  RH WIND       PRES   REMARKS
MONTEVIDEO     CLEAR     -6  -9  84 NW3       30.45R                  
GRANITE FALLS  CLEAR     -5 -10  77 W6        30.46R WCI -18          
CANBY          CLEAR     -5 -12  73 W6        30.45R WCI -18          
MARSHALL       CLEAR     -6 -11  77 W7        30.44R WCI -20          
REDWOOD FALLS  CLEAR     -2  -8  76 W5        30.45R WCI -12          
OLIVIA         CLEAR     -6 -13  71 W5        30.43R WCI -17          
PIPESTONE      PTCLDY    -9 -15  77 CALM      30.39R                  
WINDOM         CLEAR     -4  -9  77 CALM      30.43R                  
WORTHINGTON    CLEAR     -6  -9  84 W3        30.43R                  
JACKSON        CLEAR     -2  -9  71 NW7       30.42S WCI -16          
TRACY          CLEAR     -5 -12  71 W5        30.43R WCI -15          
SLAYTON        CLEAR     -6 -14  68 CALM      30.42R                  
$$
MNZ065>067-074>077-082>085-091>093-050500-
   South Central Minnesota  
  
CITY           SKY/WX    TMP DP  RH WIND       PRES   REMARKS
MANKATO        CLEAR      0  -9  65 W7        30.44R WCI -13          
NEW ULM        CLEAR     -8 -13  77 W5        30.46R WCI -19          
ST JAMES       CLEAR     -2  -9  71 W5        30.47R WCI -12          
FAIRMONT       CLEAR      0  -8  71 NW9       30.41F WCI -16          
GLENCOE        CLEAR     -4 -10  74 SW5       30.44R WCI -15          
FARIBAULT      CLEAR     -2  -9  71 W6        30.43R WCI -14          
OWATONNA       CLEAR     -2  -9  71 W9        30.41S WCI -18          
WASECA         CLEAR     -4  -9  77 W7        30.44R WCI -18          
ALBERT LEA     CLEAR      0  -8  71 NW7       30.40R WCI -13          
$$
MNZ078>079-086>088-094>096-050500-
   Southeast Minnesota   
  
CITY           SKY/WX    TMP DP  RH WIND       PRES   REMARKS
ROCHESTER      CLEAR     -2 -10  69 NW13      30.36R WCI -20          
RED WING       CLEAR      1 -13  51 NW3       30.43R                  
STANTON        CLEAR      0  -9  63 W8        30.42R WCI -14          
DODGE CENTER   PTCLDY     0  -8  71 NW13      30.36S WCI -18          
WINONA         CLEAR      9  -4  56 NW7       30.42R WCI  -3          
AUSTIN         CLEAR      0  -8  71 NW10      30.39R WCI -17          
PRESTON        CLEAR     -1  -9  67 NW13      30.37R WCI -19          
$$
ABBREVIATIONS USED IN REMARKS
   TC - TEMPERATURES IN CELSIUS
  WCI - WIND CHILL INDEX
   HX - HEAT INDEX
  VSB - VISIBILITY 
$$

Return to Home page


Western Regional Climate Center, wrcc@dri.edu